DW8816 Weather Reports


time (UTC)temp
C
wind
direction
speed
KPH
gust
KPH
rain 1hr
cm
rain 24hr
cm
rain mn
cm
humidity
%
barometer
mb
20260904174003 18 271 6.4 14.5 0.00 0.20 0.20 72 1015.0
20260904173003 18 259 3.2 17.7 0.00 0.20 0.20 71 1014.9
20260904172003 18 266 4.8 9.7 0.00 0.20 0.20 69 1014.8
20260904171003 18 283 4.8 12.9 0.00 0.20 0.20 68 1014.8
20260904170003 18 280 8.0 19.3 0.00 0.20 0.20 67 1014.7
20260904165003 18 266 6.4 20.9 0.00 0.20 0.20 67 1014.7
20260904163003 18 272 4.8 14.5 0.00 0.20 0.20 68 1014.5
20260904161004 18 267 6.4 24.1 0.00 0.20 0.20 67 1014.2
20260904160003 18 296 6.4 19.3 0.00 0.20 0.20 66 1014.2
20260904155004 18 288 6.4 19.3 0.00 0.20 0.20 66 1014.1
20260904152004 19 282 8.0 22.5 0.00 0.20 0.20 66 1014.1
20260904151005 19 275 9.7 25.7 0.00 0.20 0.20 66 1014.2
20260904150005 19 270 8.0 24.1 0.00 0.20 0.20 67 1014.1
20260904143003 19 286 6.4 19.3 0.00 0.20 0.20 68 1014.0
20260904142004 18 317 6.4 19.3 0.00 0.20 0.20 71 1013.9
20260904141005 18 300 8.0 24.1 0.00 0.20 0.20 73 1013.8
20260904140004 19 282 6.4 19.3 0.00 0.20 0.20 73 1013.8
20260904135004 19 276 6.4 24.1 0.00 0.20 0.20 73 1013.8
20260904134004 18 278 8.0 20.9 0.00 0.20 0.20 75 1013.7
20260904133004 18 273 8.0 24.1 0.00 0.20 0.20 74 1013.6
20260904131004 18 283 6.4 20.9 0.00 0.20 0.20 74 1013.6
20260904130004 19 301 9.7 24.1 0.00 0.20 0.20 74 1013.5
20260904123004 19 265 6.4 29.0 0.00 0.20 0.20 77 1012.9
20260904122005 19 264 6.4 24.1 0.00 0.20 0.20 77 1012.8
20260904121004 19 275 6.4 20.9 0.00 0.20 0.20 78 1012.8
20260904120003 18 280 4.8 16.1 0.00 0.20 0.20 79 1012.8
20260904115004 19 287 6.4 12.9 0.00 0.20 0.20 80 1012.7
20260904113004 18 302 4.8 16.1 0.00 0.20 0.20 82 1012.3
20260904112004 18 292 8.0 24.1 0.00 0.20 0.20 81 1012.3
20260904111005 18 284 4.8 19.3 0.00 0.20 0.20 81 1012.1
20260904110004 18 330 3.2 12.9 0.00 0.20 0.20 86 1012.2
20260904105004 18 317 6.4 20.9 0.00 0.20 0.20 86 1012.1
20260904104005 18 300 6.4 19.3 0.00 0.20 0.20 85 1012.3
20260904103003 18 280 6.4 20.9 0.00 0.20 0.20 85 1012.1
20260904102004 18 274 6.4 17.7 0.00 0.20 0.20 86 1011.9
20260904101005 18 299 6.4 22.5 0.00 0.20 0.20 85 1011.7
20260904100005 18 278 9.7 20.9 0.00 0.20 0.20 86 1011.6
20260904094003 18 275 6.4 24.1 0.00 0.20 0.20 89 1011.3
20260904093004 18 272 6.4 20.9 0.00 0.20 0.20 93 1011.1
20260904092004 18 274 4.8 19.3 0.00 0.20 0.20 93 1011.2
20260904091004 18 287 6.4 20.9 0.00 0.20 0.20 95 1011.2
20260904090006 17 284 4.8 17.7 0.00 0.20 0.20 95 1011.2
20260904085004 17 274 4.8 17.7 0.00 0.20 0.20 95 1010.9
20260904084004 17 270 4.8 14.5 0.03 0.20 0.20 95 1010.7
20260904083004 17 295 4.8 16.1 0.13 0.20 0.20 95 1010.5
20260904082004 17 323 8.0 17.7 0.18 0.20 0.20 95 1010.6
20260904081004 16 320 8.0 20.9 0.20 0.20 0.20 95 1010.4
20260904080003 16 310 8.0 22.5 0.20 0.20 0.20 94 1010.4
20260904074003 17 322 11.3 38.6 0.18 0.18 0.18 93 1010.4
20260904073003 18 270 11.3 24.1 0.05 0.05 0.05 95 1010.3
20260904070004 18 246 8.0 27.4 0.00 0.00 0.00 93 1009.0
20260904065004 19 253 9.7 27.4 0.00 0.00 0.00 92 1009.0
20260904064003 19 252 11.3 27.4 0.00 0.00 0.00 90 1009.0
20260904063004 20 250 11.3 38.6 0.00 0.00 0.00 89 1008.9
20260904061005 20 247 11.3 27.4 0.00 0.00 0.00 88 1008.9
20260904060003 20 249 9.7 32.2 0.00 0.00 0.00 88 1008.9
20260904055004 20 237 8.0 30.6 0.00 0.00 0.00 88 1008.9
20260904051003 20 244 9.7 33.8 0.00 0.00 0.00 89 1009.3
20260904050004 20 249 9.7 24.1 0.00 0.00 0.00 90 1009.3
20260904045003 20 249 8.0 33.8 0.00 0.00 0.00 90 1009.2
20260904044004 19 240 9.7 24.1 0.00 0.00 0.00 90 1009.5
20260904043003 19 244 9.7 29.0 0.00 0.00 0.00 91 1009.7
20260904042003 19 245 12.9 32.2 0.00 0.00 0.00 90 1009.7
20260904041005 19 254 12.9 33.8 0.00 0.00 0.00 90 1009.9
20260904040004 19 257 11.3 27.4 0.00 0.00 0.00 90 1010.0
20260904034003 20 250 8.0 32.2 0.00 0.00 0.00 89 1010.1
20260904033004 20 239 9.7 24.1 0.00 0.00 0.00 88 1010.1
20260904030005 20 241 11.3 29.0 0.00 0.00 0.00 87 1010.5
20260904025004 20 245 11.3 27.4 0.00 0.00 0.00 87 1010.6
20260904024004 20 245 9.7 25.7 0.00 0.00 0.00 87 1010.7
20260904023004 20 250 9.7 24.1 0.00 0.00 0.00 87 1010.9
20260904022003 20 242 9.7 27.4 0.00 0.00 0.00 86 1010.9
20260904021004 20 241 8.0 30.6 0.00 0.00 0.00 86 1010.9
20260904020004 20 258 6.4 27.4 0.00 0.00 0.00 86 1011.2
20260904015004 20 239 6.4 22.5 0.00 0.00 0.00 86 1011.2
20260904014004 20 245 8.0 24.1 0.00 0.00 0.00 86 1011.4
20260904012004 19 231 6.4 25.7 0.00 0.00 0.00 86 1011.5
20260904011004 19 255 6.4 22.5 0.00 0.00 0.00 87 1011.7
20260904010004 19 229 6.4 17.7 0.00 0.00 0.00 86 1011.8
20260904004004 19 243 8.0 29.0 0.00 0.00 0.00 87 1012.1
20260904003004 19 241 8.0 19.3 0.00 0.00 0.00 87 1012.3
20260904002003 19 245 6.4 25.7 0.00 0.00 0.00 88 1012.5
20260904001004 19 248 8.0 16.1 0.00 0.00 0.00 88 1012.7
20260904000004 19 247 6.4 32.2 0.00 0.00 0.00 88 1012.9
20260903235004 19 234 6.4 14.5 0.00 0.00 0.00 88 1013.1
20260903234003 19 239 6.4 17.7 0.00 0.00 0.00 88 1013.2
20260903233003 19 238 8.0 17.7 0.00 0.00 0.00 88 1013.3
20260903232005 19 237 4.8 22.5 0.00 0.00 0.00 88 1013.3
20260903231004 19 257 4.8 14.5 0.00 0.00 0.00 88 1013.4
20260903225005 19 262 6.4 20.9 0.00 0.00 0.00 87 1013.8
20260903224004 20 262 9.7 19.3 0.00 0.00 0.00 86 1013.7
20260903222004 20 255 8.0 19.3 0.00 0.00 0.00 85 1013.9
20260903221004 20 236 8.0 20.9 0.00 0.00 0.00 86 1013.9
20260903215004 20 265 8.0 22.5 0.00 0.00 0.00 87 1014.2
20260903214004 20 269 9.7 20.9 0.00 0.00 0.00 87 1014.4
20260903213003 21 261 9.7 24.1 0.00 0.00 0.00 86 1014.4
20260903211004 21 262 6.4 22.5 0.00 0.00 0.00 84 1014.4
20260903210004 21 268 8.0 17.7 0.00 0.00 0.00 83 1014.3
20260903203004 21 247 6.4 17.7 0.00 0.00 0.00 82 1014.4
20260903202004 22 258 4.8 25.7 0.00 0.00 0.00 81 1014.4
20260903201003 22 244 6.4 16.1 0.00 0.00 0.00 80 1014.4
20260903200003 22 243 3.2 19.3 0.00 0.00 0.00 77 1014.4
20260903195003 22 251 1.6 6.4 0.00 0.00 0.00 74 1014.4
20260903194003 22 262 4.8 12.9 0.00 0.00 0.00 74 1014.4
20260903192004 22 262 6.4 16.1 0.00 0.00 0.00 73 1014.6
20260903191004 22 280 4.8 16.1 0.00 0.00 0.00 72 1014.8
20260903184003 23 274 8.0 20.9 0.00 0.00 0.00 70 1014.7
20260903182003 23 265 6.4 20.9 0.00 0.00 0.00 67 1014.5
20260903181004 23 267 6.4 32.2 0.00 0.00 0.00 66 1014.7
20260903180005 23 265 9.7 22.5 0.00 0.00 0.00 66 1014.7